Time,TemperatureF,DewpointF,PressureIn,WindDirection,WindDirectionDegrees,WindSpeedMPH,WindSpeedGustMPH,Humidity,HourlyPrecipIn,Conditions,Clouds,dailyrainin,SoftwareType,DateUTC
2013-02-27 00:02:00,27.0,25.0,30.14,WNW,293,11.0,-999.0,91,-99.99,,,-99.99,,2013-02-27 06:02:00,
2013-02-27 00:11:00,27.0,25.0,30.14,WNW,293,11.0,-999.0,91,-99.99,,,-99.99,,2013-02-27 06:11:00,
2013-02-27 00:21:00,27.0,24.0,30.15,WNW,303,12.0,-999.0,90,-99.99,,,-99.99,,2013-02-27 06:21:00,
2013-02-27 00:32:00,26.0,24.0,30.15,WNW,302,12.0,-999.0,91,-99.99,,,-99.99,,2013-02-27 06:32:00,
2013-02-27 00:41:00,26.0,24.0,30.15,WNW,302,12.0,-999.0,91,-99.99,,,-99.99,,2013-02-27 06:41:00,
2013-02-27 00:52:00,26.0,24.0,30.15,NW,314,12.0,-999.0,91,-99.99,,,-99.99,,2013-02-27 06:52:00,
2013-02-27 01:01:00,26.0,24.0,30.16,NW,308,11.0,-999.0,91,-99.99,,,-99.99,,2013-02-27 07:01:00,
2013-02-27 01:12:00,26.0,24.0,30.16,NW,308,11.0,-999.0,91,-99.99,,,-99.99,,2013-02-27 07:12:00,
2013-02-27 01:21:00,26.0,24.0,30.16,NW,316,9.0,-999.0,91,-99.99,,,-99.99,,2013-02-27 07:21:00,
2013-02-27 01:31:00,27.0,25.0,30.16,NNW,336,10.0,-999.0,91,-99.99,,,-99.99,,2013-02-27 07:31:00,
2013-02-27 01:42:00,27.0,25.0,30.16,NNW,336,10.0,-999.0,91,-99.99,,,-99.99,,2013-02-27 07:42:00,
2013-02-27 01:52:00,27.0,25.0,30.16,NW,315,9.0,-999.0,91,-99.99,,,-99.99,,2013-02-27 07:52:00,
2013-02-27 02:01:00,26.0,24.0,30.16,NW,324,12.0,-999.0,91,-99.99,,,-99.99,,2013-02-27 08:01:00,
2013-02-27 02:11:00,26.0,24.0,30.16,NW,324,12.0,-999.0,91,-99.99,,,-99.99,,2013-02-27 08:11:00,
2013-02-27 02:21:00,27.0,25.0,30.16,NW,311,11.0,-999.0,91,-99.99,,,-99.99,,2013-02-27 08:21:00,
2013-02-27 02:32:00,27.0,25.0,30.16,NW,308,9.0,-999.0,91,-99.99,,,-99.99,,2013-02-27 08:32:00,
2013-02-27 02:41:00,27.0,25.0,30.16,NW,308,9.0,-999.0,91,-99.99,,,-99.99,,2013-02-27 08:41:00,
2013-02-27 02:53:00,27.0,25.0,30.17,NW,315,10.0,-999.0,91,-99.99,,,-99.99,,2013-02-27 08:53:00,
2013-02-27 03:01:00,26.0,24.0,30.17,NNW,340,9.0,-999.0,91,-99.99,,,-99.99,,2013-02-27 09:01:00,
2013-02-27 03:12:00,26.0,24.0,30.17,NNW,340,9.0,-999.0,91,-99.99,,,-99.99,,2013-02-27 09:12:00,
2013-02-27 03:21:00,26.0,24.0,30.18,NNW,328,10.0,-999.0,91,-99.99,,,-99.99,,2013-02-27 09:21:00,
2013-02-27 03:32:00,26.0,24.0,30.18,NNW,346,9.0,-999.0,91,-99.99,,,-99.99,,2013-02-27 09:32:00,
2013-02-27 03:41:00,26.0,24.0,30.18,NNW,346,9.0,-999.0,91,-99.99,,,-99.99,,2013-02-27 09:41:00,
2013-02-27 03:52:00,26.0,24.0,30.18,NNW,331,8.0,-999.0,92,-99.99,,,-99.99,,2013-02-27 09:52:00,
2013-02-27 04:01:00,26.0,24.0,30.19,NW,323,9.0,-999.0,92,-99.99,,,-99.99,,2013-02-27 10:01:00,
2013-02-27 04:12:00,26.0,24.0,30.19,NW,323,9.0,-999.0,92,-99.99,,,-99.99,,2013-02-27 10:12:00,
2013-02-27 04:22:00,26.0,24.0,30.19,NW,325,11.0,-999.0,91,-99.99,,,-99.99,,2013-02-27 10:22:00,
2013-02-27 04:32:00,26.0,24.0,30.19,NW,325,10.0,-999.0,92,-99.99,,,-99.99,,2013-02-27 10:32:00,
2013-02-27 04:42:00,26.0,24.0,30.19,NW,325,10.0,-999.0,92,-99.99,,,-99.99,,2013-02-27 10:42:00,
2013-02-27 04:53:00,26.0,24.0,30.20,NNW,328,10.0,-999.0,92,-99.99,,,-99.99,,2013-02-27 10:53:00,
2013-02-27 05:02:00,26.0,24.0,30.20,NNW,333,10.0,-999.0,91,-99.99,,,-99.99,,2013-02-27 11:02:00,
2013-02-27 05:12:00,26.0,24.0,30.20,NNW,333,10.0,-999.0,91,-99.99,,,-99.99,,2013-02-27 11:12:00,
2013-02-27 05:22:00,26.0,24.0,30.21,NNW,339,10.0,-999.0,91,-99.99,,,-99.99,,2013-02-27 11:22:00,
2013-02-27 05:32:00,26.0,24.0,30.21,NNW,337,10.0,-999.0,92,-99.99,,,-99.99,,2013-02-27 11:32:00,
2013-02-27 05:41:00,26.0,24.0,30.21,NNW,337,10.0,-999.0,92,-99.99,,,-99.99,,2013-02-27 11:41:00,
2013-02-27 05:52:00,25.0,23.0,30.22,NNW,338,9.0,-999.0,92,-99.99,,,-99.99,,2013-02-27 11:52:00,
2013-02-27 06:02:00,25.0,23.0,30.22,NW,323,8.0,-999.0,92,-99.99,,,-99.99,,2013-02-27 12:02:00,
2013-02-27 06:12:00,25.0,23.0,30.22,NW,323,8.0,-999.0,92,-99.99,,,-99.99,,2013-02-27 12:12:00,
2013-02-27 06:22:00,25.0,23.0,30.23,NNW,333,9.0,-999.0,92,-99.99,,,-99.99,,2013-02-27 12:22:00,
2013-02-27 06:32:00,25.0,23.0,30.23,NNW,335,9.0,-999.0,92,-99.99,,,-99.99,,2013-02-27 12:32:00,
2013-02-27 06:42:00,25.0,23.0,30.23,NNW,335,9.0,-999.0,92,-99.99,,,-99.99,,2013-02-27 12:42:00,
2013-02-27 06:52:00,25.0,23.0,30.24,NNW,340,7.0,-999.0,92,-99.99,,,-99.99,,2013-02-27 12:52:00,
2013-02-27 07:02:00,25.0,23.0,30.24,NNW,344,6.0,-999.0,92,-99.99,,,-99.99,,2013-02-27 13:02:00,
2013-02-27 07:11:00,25.0,23.0,30.24,NNW,344,6.0,-999.0,92,-99.99,,,-99.99,,2013-02-27 13:11:00,
2013-02-27 07:22:00,25.0,23.0,30.24,NNW,344,6.0,-999.0,92,-99.99,,,-99.99,,2013-02-27 13:22:00,
2013-02-27 07:32:00,25.0,23.0,30.24,NNW,344,5.0,-999.0,92,-99.99,,,-99.99,,2013-02-27 13:32:00,
2013-02-27 07:42:00,25.0,23.0,30.24,NNW,344,5.0,-999.0,92,-99.99,,,-99.99,,2013-02-27 13:42:00,
2013-02-27 07:52:00,25.0,23.0,30.24,NNW,344,4.0,-999.0,92,-99.99,,,-99.99,,2013-02-27 13:52:00,
2013-02-27 08:02:00,25.0,23.0,30.25,NNW,344,3.0,-999.0,92,-99.99,,,-99.99,,2013-02-27 14:02:00,
2013-02-27 08:12:00,25.0,23.0,30.25,NNW,344,3.0,-999.0,92,-99.99,,,-99.99,,2013-02-27 14:12:00,
2013-02-27 08:21:00,25.0,23.0,30.25,NNW,344,3.0,-999.0,93,-99.99,,,-99.99,,2013-02-27 14:21:00,
2013-02-27 08:32:00,25.0,23.0,30.25,NNW,344,0.0,-999.0,93,-99.99,,,-99.99,,2013-02-27 14:32:00,
2013-02-27 08:42:00,25.0,23.0,30.25,NNW,344,0.0,-999.0,93,-99.99,,,-99.99,,2013-02-27 14:42:00,
2013-02-27 08:52:00,26.0,24.0,30.26,NNW,344,3.0,-999.0,93,-99.99,,,-99.99,,2013-02-27 14:52:00,
2013-02-27 09:02:00,26.0,24.0,30.26,NNW,344,3.0,-999.0,92,-99.99,,,-99.99,,2013-02-27 15:02:00,
2013-02-27 09:12:00,26.0,24.0,30.26,NNW,344,3.0,-999.0,92,-99.99,,,-99.99,,2013-02-27 15:12:00,
2013-02-27 09:22:00,26.0,24.0,30.27,NNW,344,3.0,-999.0,92,-99.99,,,-99.99,,2013-02-27 15:22:00,
2013-02-27 09:32:00,26.0,24.0,30.27,NNW,344,0.0,-999.0,92,-99.99,,,-99.99,,2013-02-27 15:32:00,
2013-02-27 09:42:00,26.0,24.0,30.27,NNW,344,0.0,-999.0,92,-99.99,,,-99.99,,2013-02-27 15:42:00,
2013-02-27 09:52:00,26.0,24.0,30.27,NNW,344,2.0,-999.0,92,-99.99,,,-99.99,,2013-02-27 15:52:00,
2013-02-27 10:02:00,26.0,24.0,30.27,NNW,344,0.0,-999.0,92,-99.99,,,-99.99,,2013-02-27 16:02:00,
2013-02-27 10:12:00,26.0,24.0,30.27,NNW,344,0.0,-999.0,92,-99.99,,,-99.99,,2013-02-27 16:12:00,
2013-02-27 10:22:00,27.0,25.0,30.27,NNW,344,0.0,-999.0,92,-99.99,,,-99.99,,2013-02-27 16:22:00,
2013-02-27 10:32:00,27.0,25.0,30.27,NNW,344,1.0,-999.0,91,-99.99,,,-99.99,,2013-02-27 16:32:00,
2013-02-27 10:42:00,27.0,25.0,30.27,NNW,344,1.0,-999.0,91,-99.99,,,-99.99,,2013-02-27 16:42:00,
2013-02-27 10:52:00,27.0,25.0,30.27,NNW,344,3.0,-999.0,91,-99.99,,,-99.99,,2013-02-27 16:52:00,
2013-02-27 11:02:00,27.0,24.0,30.27,NNW,344,3.0,-999.0,90,-99.99,,,-99.99,,2013-02-27 17:02:00,
2013-02-27 11:11:00,27.0,24.0,30.27,NNW,344,3.0,-999.0,90,-99.99,,,-99.99,,2013-02-27 17:11:00,
2013-02-27 11:21:00,28.0,25.0,30.27,NNW,344,0.0,-999.0,89,-99.99,,,-99.99,,2013-02-27 17:21:00,
2013-02-27 11:32:00,28.0,25.0,30.27,NNW,344,0.0,-999.0,88,-99.99,,,-99.99,,2013-02-27 17:32:00,
2013-02-27 11:42:00,28.0,25.0,30.27,NNW,344,0.0,-999.0,88,-99.99,,,-99.99,,2013-02-27 17:42:00,
2013-02-27 11:52:00,28.0,25.0,30.28,NNW,344,0.0,-999.0,88,-99.99,,,-99.99,,2013-02-27 17:52:00,
2013-02-27 12:01:00,28.0,25.0,30.28,NNW,344,1.0,-999.0,88,-99.99,,,-99.99,,2013-02-27 18:01:00,
2013-02-27 12:11:00,28.0,25.0,30.28,NNW,344,1.0,-999.0,88,-99.99,,,-99.99,,2013-02-27 18:11:00,
2013-02-27 12:22:00,28.0,25.0,30.28,NNW,344,1.0,-999.0,88,-99.99,,,-99.99,,2013-02-27 18:22:00,
2013-02-27 12:32:00,28.0,25.0,30.28,NNW,344,1.0,-999.0,88,-99.99,,,-99.99,,2013-02-27 18:32:00,
2013-02-27 12:42:00,28.0,25.0,30.28,NNW,344,1.0,-999.0,88,-99.99,,,-99.99,,2013-02-27 18:42:00,
2013-02-27 12:52:00,29.0,26.0,30.28,NNW,344,0.0,-999.0,87,-99.99,,,-99.99,,2013-02-27 18:52:00,
2013-02-27 13:01:00,29.0,25.0,30.28,NNW,344,0.0,-999.0,86,-99.99,,,-99.99,,2013-02-27 19:01:00,
2013-02-27 13:12:00,29.0,25.0,30.28,NNW,344,0.0,-999.0,86,-99.99,,,-99.99,,2013-02-27 19:12:00,
2013-02-27 13:21:00,29.0,25.0,30.28,NNW,344,0.0,-999.0,85,-99.99,,,-99.99,,2013-02-27 19:21:00,
2013-02-27 13:32:00,30.0,26.0,30.28,NNW,344,0.0,-999.0,84,-99.99,,,-99.99,,2013-02-27 19:32:00,
2013-02-27 13:42:00,30.0,26.0,30.28,NNW,344,0.0,-999.0,84,-99.99,,,-99.99,,2013-02-27 19:42:00,
2013-02-27 13:52:00,30.0,25.0,30.28,NNW,344,0.0,-999.0,83,-99.99,,,-99.99,,2013-02-27 19:52:00,
2013-02-27 14:01:00,30.0,25.0,30.28,NNW,344,0.0,-999.0,83,-99.99,,,-99.99,,2013-02-27 20:01:00,
2013-02-27 14:11:00,30.0,25.0,30.28,NNW,344,0.0,-999.0,83,-99.99,,,-99.99,,2013-02-27 20:11:00,
2013-02-27 14:21:00,30.0,25.0,30.28,NNW,344,0.0,-999.0,83,-99.99,,,-99.99,,2013-02-27 20:21:00,
2013-02-27 14:32:00,29.0,25.0,30.28,NNW,344,0.0,-999.0,84,-99.99,,,-99.99,,2013-02-27 20:32:00,
2013-02-27 14:42:00,29.0,25.0,30.28,NNW,344,0.0,-999.0,84,-99.99,,,-99.99,,2013-02-27 20:42:00,
2013-02-27 14:52:00,29.0,25.0,30.28,NNW,344,0.0,-999.0,84,-99.99,,,-99.99,,2013-02-27 20:52:00,
2013-02-27 15:02:00,29.0,25.0,30.29,NNW,344,0.0,-999.0,86,-99.99,,,-99.99,,2013-02-27 21:02:00,
2013-02-27 15:11:00,29.0,25.0,30.29,NNW,344,0.0,-999.0,86,-99.99,,,-99.99,,2013-02-27 21:11:00,
2013-02-27 15:22:00,29.0,25.0,30.28,NNW,344,0.0,-999.0,86,-99.99,,,-99.99,,2013-02-27 21:22:00,
2013-02-27 15:31:00,29.0,26.0,30.28,NNW,344,1.0,-999.0,87,-99.99,,,-99.99,,2013-02-27 21:31:00,
2013-02-27 15:42:00,29.0,26.0,30.28,NNW,344,1.0,-999.0,87,-99.99,,,-99.99,,2013-02-27 21:42:00,
2013-02-27 15:52:00,29.0,26.0,30.28,North,350,3.0,-999.0,88,-99.99,,,-99.99,,2013-02-27 21:52:00,
2013-02-27 16:01:00,29.0,26.0,30.28,North,5,4.0,-999.0,89,-99.99,,,-99.99,,2013-02-27 22:01:00,
2013-02-27 16:11:00,29.0,26.0,30.28,North,5,4.0,-999.0,89,-99.99,,,-99.99,,2013-02-27 22:11:00,
2013-02-27 16:21:00,29.0,26.0,30.28,NNE,19,4.0,-999.0,89,-99.99,,,-99.99,,2013-02-27 22:21:00,
2013-02-27 16:31:00,29.0,26.0,30.28,NNE,30,4.0,-999.0,90,-99.99,,,-99.99,,2013-02-27 22:31:00,
2013-02-27 16:42:00,29.0,26.0,30.28,NNE,30,4.0,-999.0,90,-99.99,,,-99.99,,2013-02-27 22:42:00,
2013-02-27 16:52:00,28.0,25.0,30.28,NE,34,4.0,-999.0,90,-99.99,,,-99.99,,2013-02-27 22:52:00,
2013-02-27 17:01:00,28.0,25.0,30.28,NE,38,4.0,-999.0,90,-99.99,,,-99.99,,2013-02-27 23:01:00,
2013-02-27 17:11:00,28.0,25.0,30.28,NE,38,4.0,-999.0,90,-99.99,,,-99.99,,2013-02-27 23:11:00,
2013-02-27 17:21:00,28.0,25.0,30.28,NE,40,5.0,-999.0,90,-99.99,,,-99.99,,2013-02-27 23:21:00,
2013-02-27 17:32:00,28.0,25.0,30.28,NE,40,4.0,-999.0,90,-99.99,,,-99.99,,2013-02-27 23:32:00,
2013-02-27 17:42:00,28.0,25.0,30.28,NE,40,4.0,-999.0,90,-99.99,,,-99.99,,2013-02-27 23:42:00,
2013-02-27 17:53:00,28.0,25.0,30.28,NE,40,0.0,-999.0,90,-99.99,,,-99.99,,2013-02-27 23:53:00,
2013-02-27 18:01:00,28.0,25.0,30.28,NE,40,0.0,-999.0,90,-99.99,,,-99.99,,2013-02-28 00:01:00,
2013-02-27 18:11:00,28.0,25.0,30.28,NE,40,0.0,-999.0,90,-99.99,,,-99.99,,2013-02-28 00:11:00,
2013-02-27 18:21:00,28.0,25.0,30.28,NE,40,2.0,-999.0,90,-99.99,,,-99.99,,2013-02-28 00:21:00,
2013-02-27 18:32:00,28.0,25.0,30.28,NE,40,2.0,-999.0,90,-99.99,,,-99.99,,2013-02-28 00:32:00,
2013-02-27 18:42:00,28.0,25.0,30.28,NE,40,2.0,-999.0,90,-99.99,,,-99.99,,2013-02-28 00:42:00,
2013-02-27 18:52:00,27.0,24.0,30.28,NE,42,3.0,-999.0,90,-99.99,,,-99.99,,2013-02-28 00:52:00,
2013-02-27 19:01:00,27.0,25.0,30.29,NE,42,1.0,-999.0,91,-99.99,,,-99.99,,2013-02-28 01:01:00,
2013-02-27 19:11:00,27.0,25.0,30.29,NE,42,1.0,-999.0,91,-99.99,,,-99.99,,2013-02-28 01:11:00,
2013-02-27 19:21:00,27.0,24.0,30.29,NE,42,0.0,-999.0,90,-99.99,,,-99.99,,2013-02-28 01:21:00,
2013-02-27 19:32:00,27.0,24.0,30.29,NE,42,2.0,-999.0,90,-99.99,,,-99.99,,2013-02-28 01:32:00,
2013-02-27 19:41:00,27.0,24.0,30.29,NE,42,2.0,-999.0,90,-99.99,,,-99.99,,2013-02-28 01:41:00,
2013-02-27 19:52:00,27.0,24.0,30.29,NE,43,3.0,-999.0,90,-99.99,,,-99.99,,2013-02-28 01:52:00,
2013-02-27 20:01:00,27.0,25.0,30.29,NE,43,1.0,-999.0,91,-99.99,,,-99.99,,2013-02-28 02:01:00,
2013-02-27 20:11:00,27.0,25.0,30.29,NE,43,1.0,-999.0,91,-99.99,,,-99.99,,2013-02-28 02:11:00,
2013-02-27 20:22:00,27.0,25.0,30.29,NE,43,0.0,-999.0,91,-99.99,,,-99.99,,2013-02-28 02:22:00,
2013-02-27 20:31:00,27.0,25.0,30.28,NE,43,1.0,-999.0,92,-99.99,,,-99.99,,2013-02-28 02:31:00,
2013-02-27 20:41:00,27.0,25.0,30.28,NE,43,1.0,-999.0,92,-99.99,,,-99.99,,2013-02-28 02:41:00,
2013-02-27 20:52:00,27.0,25.0,30.28,NE,43,1.0,-999.0,92,-99.99,,,-99.99,,2013-02-28 02:52:00,
2013-02-27 21:01:00,26.0,24.0,30.28,NE,43,0.0,-999.0,92,-99.99,,,-99.99,,2013-02-28 03:01:00,
2013-02-27 21:11:00,26.0,24.0,30.28,NE,43,0.0,-999.0,92,-99.99,,,-99.99,,2013-02-28 03:11:00,
2013-02-27 21:21:00,26.0,24.0,30.29,NE,42,0.0,-999.0,93,-99.99,,,-99.99,,2013-02-28 03:21:00,
2013-02-27 21:31:00,26.0,24.0,30.29,NE,43,0.0,-999.0,93,-99.99,,,-99.99,,2013-02-28 03:31:00,
2013-02-27 21:42:00,26.0,24.0,30.29,NE,43,0.0,-999.0,93,-99.99,,,-99.99,,2013-02-28 03:42:00,
2013-02-27 21:52:00,26.0,24.0,30.28,NE,43,1.0,-999.0,93,-99.99,,,-99.99,,2013-02-28 03:52:00,
2013-02-27 22:01:00,26.0,24.0,30.28,NE,42,0.0,-999.0,93,-99.99,,,-99.99,,2013-02-28 04:01:00,
2013-02-27 22:11:00,26.0,24.0,30.28,NE,42,0.0,-999.0,93,-99.99,,,-99.99,,2013-02-28 04:11:00,
2013-02-27 22:21:00,26.0,24.0,30.28,NE,43,0.0,-999.0,93,-99.99,,,-99.99,,2013-02-28 04:21:00,
2013-02-27 22:32:00,26.0,24.0,30.29,NE,43,0.0,-999.0,93,-99.99,,,-99.99,,2013-02-28 04:32:00,
2013-02-27 22:42:00,26.0,24.0,30.29,NE,43,0.0,-999.0,93,-99.99,,,-99.99,,2013-02-28 04:42:00,
2013-02-27 22:52:00,26.0,24.0,30.29,NE,43,0.0,-999.0,93,-99.99,,,-99.99,,2013-02-28 04:52:00,
2013-02-27 23:01:00,26.0,24.0,30.29,NE,43,0.0,-999.0,93,-99.99,,,-99.99,,2013-02-28 05:01:00,
2013-02-27 23:11:00,26.0,24.0,30.29,NE,43,0.0,-999.0,93,-99.99,,,-99.99,,2013-02-28 05:11:00,
2013-02-27 23:22:00,26.0,24.0,30.29,NE,43,0.0,-999.0,93,-99.99,,,-99.99,,2013-02-28 05:22:00,
2013-02-27 23:31:00,26.0,24.0,30.29,NE,43,0.0,-999.0,93,-99.99,,,-99.99,,2013-02-28 05:31:00,
2013-02-27 23:42:00,26.0,24.0,30.29,NE,43,0.0,-999.0,93,-99.99,,,-99.99,,2013-02-28 05:42:00,
2013-02-27 23:52:00,26.0,24.0,30.28,NE,43,0.0,-999.0,93,-99.99,,,-99.99,,2013-02-28 05:52:00,